When you browse on this site, cookies collect data to enhance your experience and personalize the content and advertising you see.
Visit our Privacy Policy to learn more. By continuing to use the site, you agree to this use of cookies and data.
  • In Hungary
  • List of Countries
  • For 7 days
  • Water Temperature
  • Satellite Maps
  • Weather Map
  • News
  • Weather Widgets
  • user-avatar
    Login

    Hourly Weather Kaskinovo

    Today, 12 December, Wednesday

    Time Temperature Precipitation Wind Pressure Humidity
    00:00 -7°C° 0 mm 1 mps 744 mmHg 90%
    01:00 -7°C° 0 mm 1 mps 744 mmHg 88%
    02:00 -7°C° 0 mm 1 mps 744 mmHg 87%
    03:00 -7°C° 0 mm 1 mps 744 mmHg 86%
    04:00 -8°C° 0 mm 2 mps 744 mmHg 87%
    05:00 -7°C° 0 mm 2 mps 744 mmHg 86%
    06:00 -7°C° 0 mm 2 mps 744 mmHg 84%
    07:00 -7°C° 0 mm 2 mps 744 mmHg 82%
    08:00 -7°C° 0 mm 2 mps 744 mmHg 81%
    09:00 -7°C° 0 mm 2 mps 744 mmHg 79%
    10:00 -7°C° 0 mm 2 mps 744 mmHg 78%
    11:00 -6°C° 0 mm 2 mps 743 mmHg 78%
    12:00 -5°C° 0 mm 2 mps 743 mmHg 78%
    13:00 -5°C° 0 mm 2 mps 743 mmHg 77%
    14:00 -5°C° 0 mm 2 mps 743 mmHg 76%
    15:00 -6°C° 0 mm 2 mps 743 mmHg 75%
    16:00 -6°C° 0 mm 2 mps 742 mmHg 74%
    17:00 -7°C° 0 mm 2 mps 742 mmHg 73%
    18:00 -7°C° 0 mm 2 mps 742 mmHg 72%
    19:00 -7°C° 0 mm 2 mps 742 mmHg 71%
    20:00 -7°C° 0 mm 2 mps 742 mmHg 71%
    21:00 -7°C° 0 mm 2 mps 742 mmHg 70%
    22:00 -7°C° 0 mm 2 mps 742 mmHg 70%
    23:00 -7°C° 0 mm 2 mps 742 mmHg 69%

    Tomorrow, 13 December, Thursday

    Time Temperature Precipitation Wind Pressure Humidity
    00:00 -7°C° 0 mm 2 mps 742 mmHg 69%
    01:00 -7°C° 0 mm 2 mps 742 mmHg 68%
    02:00 -7°C° 0 mm 2 mps 742 mmHg 68%
    03:00 -7°C° 0 mm 2 mps 742 mmHg 68%
    04:00 -7°C° 0 mm 2 mps 742 mmHg 68%
    05:00 -7°C° 0 mm 2 mps 742 mmHg 68%
    06:00 -7°C° 0 mm 2 mps 742 mmHg 68%
    07:00 -7°C° 0 mm 2 mps 742 mmHg 68%
    08:00 -7°C° 0 mm 2 mps 742 mmHg 70%
    09:00 -6°C° 0 mm 2 mps 742 mmHg 71%
    10:00 -5°C° 0 mm 2 mps 743 mmHg 73%
    11:00 -5°C° 0 mm 2 mps 742 mmHg 74%
    12:00 -4°C° 0 mm 2 mps 742 mmHg 74%
    13:00 -4°C° 0 mm 2 mps 742 mmHg 75%
    14:00 -4°C° 0 mm 2 mps 742 mmHg 75%
    15:00 -5°C° 0 mm 2 mps 742 mmHg 75%
    16:00 -7°C° 0 mm 3 mps 742 mmHg 75%
    17:00 -7°C° 0 mm 3 mps 742 mmHg 75%
    18:00 -7°C° 0 mm 3 mps 742 mmHg 74%
    19:00 -7°C° 0 mm 3 mps 742 mmHg 74%
    20:00 -7°C° 0 mm 3 mps 742 mmHg 73%
    21:00 -8°C° 0 mm 4 mps 742 mmHg 73%
    22:00 -8°C° 0 mm 4 mps 742 mmHg 72%
    23:00 -8°C° 0 mm 4 mps 742 mmHg 72%

    Day after tomorrow, 14 December, Friday

    Time Temperature Precipitation Wind Pressure Humidity
    00:00 -8°C° 0 mm 4 mps 742 mmHg 72%
    01:00 -7°C° 0 mm 5 mps 742 mmHg 73%
    02:00 -7°C° 0 mm 5 mps 742 mmHg 72%
    03:00 -7°C° 0 mm 5 mps 742 mmHg 72%
    04:00 -8°C° 0 mm 6 mps 742 mmHg 71%
    05:00 -8°C° 0 mm 6 mps 741 mmHg 71%
    06:00 -8°C° 0 mm 6 mps 741 mmHg 71%
    07:00 -8°C° 0 mm 7 mps 741 mmHg 71%
    08:00 -8°C° 0.1 mm 7 mps 741 mmHg 72%
    09:00 -8°C° 0.1 mm 7 mps 741 mmHg 73%
    10:00 -8°C° 0.1 mm 7 mps 741 mmHg 74%
    11:00 -7°C° 0.3 mm 8 mps 741 mmHg 78%
    12:00 -7°C° 0.3 mm 8 mps 741 mmHg 81%
    13:00 -7°C° 0.3 mm 8 mps 740 mmHg 84%
    14:00 -7°C° 0.5 mm 8 mps 740 mmHg 85%
    15:00 -7°C° 0.5 mm 8 mps 740 mmHg 86%
    16:00 -7°C° 0.5 mm 8 mps 740 mmHg 87%
    17:00 -7°C° 0.1 mm 7 mps 740 mmHg 87%
    18:00 -8°C° 0.1 mm 7 mps 740 mmHg 86%
    19:00 -8°C° 0.1 mm 7 mps 739 mmHg 86%
    20:00 -8°C° 0 mm 7 mps 739 mmHg 86%
    21:00 -8°C° 0 mm 7 mps 739 mmHg 87%
    22:00 -8°C° 0 mm 6 mps 739 mmHg 87%
    23:00 -8°C° 0 mm 6 mps 739 mmHg 87%

    15 December, Saturday

    Time Temperature Precipitation Wind Pressure Humidity
    00:00 -8°C° 0 mm 6 mps 739 mmHg 88%
    01:00 -8°C° 0 mm 6 mps 739 mmHg 88%
    02:00 -8°C° 0 mm 5 mps 739 mmHg 89%
    03:00 -8°C° 0 mm 5 mps 739 mmHg 89%
    04:00 -8°C° 0 mm 5 mps 739 mmHg 90%
    05:00 -8°C° 0 mm 4 mps 739 mmHg 90%
    06:00 -8°C° 0 mm 4 mps 739 mmHg 90%
    07:00 -8°C° 0 mm 4 mps 739 mmHg 91%
    08:00 -7°C° 0 mm 3 mps 739 mmHg 91%
    09:00 -7°C° 0 mm 3 mps 739 mmHg 91%
    10:00 -7°C° 0 mm 3 mps 740 mmHg 91%
    11:00 -5°C° 0 mm 2 mps 740 mmHg 91%
    12:00 -5°C° 0 mm 2 mps 740 mmHg 92%
    13:00 -4°C° 0 mm 2 mps 740 mmHg 92%
    14:00 -5°C° 0 mm 2 mps 740 mmHg 92%
    15:00 -3°C° 0 mm 1 mps 740 mmHg 93%
    16:00 -3°C° 0 mm 1 mps 740 mmHg 94%
    17:00 -3°C° 0 mm 1 mps 740 mmHg 94%
    18:00 -4°C° 0 mm 1 mps 740 mmHg 94%
    19:00 -4°C° 0 mm 1 mps 740 mmHg 94%
    20:00 -4°C° 0 mm 1 mps 740 mmHg 95%
    21:00 -5°C° 0 mm 0 mps 740 mmHg 95%
    22:00 -5°C° 0 mm 0 mps 740 mmHg 95%
    23:00 -5°C° 0.1 mm 0 mps 740 mmHg 95%

    16 December, Sunday

    Time Temperature Precipitation Wind Pressure Humidity
    00:00 -5°C° 0.1 mm 0 mps 740 mmHg 95%
    01:00 -6°C° 0.1 mm 0 mps 740 mmHg 96%
    02:00 -6°C° 0.1 mm 1 mps 740 mmHg 96%
    03:00 -6°C° 0.1 mm 1 mps 740 mmHg 96%
    04:00 -6°C° 0.1 mm 1 mps 740 mmHg 96%
    05:00 -7°C° 0 mm 1 mps 740 mmHg 96%
    06:00 -7°C° 0 mm 1 mps 740 mmHg 96%
    07:00 -7°C° 0 mm 1 mps 740 mmHg 96%
    08:00 -7°C° 0 mm 1 mps 741 mmHg 96%
    09:00 -7°C° 0 mm 1 mps 741 mmHg 95%
    10:00 -7°C° 0 mm 1 mps 741 mmHg 95%
    11:00 -7°C° 0 mm 1 mps 742 mmHg 94%
    12:00 -6°C° 0 mm 1 mps 742 mmHg 94%
    13:00 -6°C° 0 mm 1 mps 742 mmHg 93%
    14:00 -7°C° 0 mm 1 mps 742 mmHg 94%
    15:00 -7°C° 0 mm 1 mps 743 mmHg 94%
    16:00 -9°C° 0 mm 2 mps 743 mmHg 95%
    17:00 -9°C° 0 mm 2 mps 743 mmHg 95%
    18:00 -9°C° 0 mm 2 mps 744 mmHg 94%
    19:00 -10°C° 0 mm 2 mps 744 mmHg 94%
    20:00 -10°C° 0 mm 2 mps 744 mmHg 93%
    21:00 -10°C° 0 mm 2 mps 745 mmHg 93%
    22:00 -10°C° 0 mm 2 mps 745 mmHg 92%
    23:00 -12°C° 0 mm 2 mps 745 mmHg 91%

    17 December, Monday

    Time Temperature Precipitation Wind Pressure Humidity
    00:00 -12°C° 0 mm 2 mps 745 mmHg 90%
    01:00 -13°C° 0 mm 2 mps 746 mmHg 90%
    02:00 -13°C° 0 mm 2 mps 746 mmHg 90%
    03:00 -14°C° 0 mm 2 mps 746 mmHg 90%
    04:00 -14°C° 0 mm 2 mps 746 mmHg 90%
    05:00 -14°C° 0 mm 2 mps 746 mmHg 90%
    06:00 -12°C° 0 mm 1 mps 746 mmHg 90%
    07:00 -12°C° 0 mm 1 mps 747 mmHg 91%
    08:00 -12°C° 0 mm 1 mps 747 mmHg 91%
    09:00 -12°C° 0 mm 1 mps 747 mmHg 91%
    10:00 -11°C° 0 mm 1 mps 747 mmHg 91%
    11:00 -10°C° 0 mm 1 mps 748 mmHg 90%
    12:00 -10°C° 0 mm 1 mps 748 mmHg 90%
    13:00 -9°C° 0 mm 1 mps 748 mmHg 89%
    14:00 -10°C° 0 mm 1 mps 748 mmHg 90%
    15:00 -10°C° 0 mm 1 mps 748 mmHg 91%
    16:00 -11°C° 0 mm 1 mps 748 mmHg 92%
    17:00 -12°C° 0 mm 1 mps 748 mmHg 92%
    18:00 -12°C° 0 mm 1 mps 748 mmHg 93%
    19:00 -12°C° 0 mm 1 mps 748 mmHg 93%
    20:00 -13°C° 0 mm 1 mps 748 mmHg 93%
    21:00 -13°C° 0 mm 0 mps 749 mmHg 93%
    22:00 -13°C° 0 mm 0 mps 749 mmHg 94%
    23:00 -13°C° 0 mm 0 mps 749 mmHg 94%
    Show more